Location: Unspecified
(0.0000°N, 0.0000°E)
Time: 07:52:13
(UTC+00:00)

N. Korean satellite - Pass Details

Date: 01 December 2020
Orbit: 452 x 504 km, 97.2° (Epoch: 27 November)

Event Time Altitude Azimuth Distance (km) Brightness Sun altitude
Rises 04:19:30 0° 41° (NE) 2,578 10.5 -20.7°
Reaches altitude 10° 04:22:17 10° 65° (ENE) 1,703 9.9 -20.1°
Maximum altitude 04:24:26 15° 101° (ESE) 1,423 9.9 -19.6°
Drops below altitude 10° 04:26:35 10° 137° (SE) 1,712 10.3 -19.1°
Sets 04:29:24 0° 161° (SSE) 2,599 10.9 -18.4°
